Bartlesville, OK

4:12 PM CDT on August 19, 2017 (GMT -0500)
Bartlesville Municipal

Weather History for KBVO - November, 2012

Change the Weather History Date:

Friday, November 30, 2012

  Actual Average Record
Temperature  
Mean Temperature 48 °F -  
Max Temperature 64 °F 55 °F 75 °F (1973)
Min Temperature 33 °F 31 °F 9 °F (1964)
Degree Days  
Heating Degree Days 16    
Moisture  
Dew Point 44 °F    
Average Humidity 89    
Maximum Humidity 100    
Minimum Humidity 60    
Precipitation  
Precipitation 0.00 in - - ()
Sea Level Pressure  
Sea Level Pressure 30.05 in    
Wind  
Wind Speed 2 mph (SSE)    
Max Wind Speed 14 mph    
Max Gust Speed -    
Visibility 6 miles    
Events Fog    
Averages and records for this station are not official NWS values.
T = Trace of Precipitation, MM = Missing Value Source: NWS Daily Summary

Daily Weather History Graph

Daily Weather History Graph

Search for Another Location

Airport or City:

Trip Planner

Search our weather history database for the weather conditions in past years. The results will help you decide how hot, cold, wet, or windy it might be!

Date:

Astronomy

Nov. 30, 2012 Rise Set
Actual Time 7:17 AM CST 5:08 PM CST
Civil Twilight 6:49 AM CST 5:36 PM CST
Nautical Twilight 6:17 AM CST 6:08 PM CST
Astronomical Twilight 5:45 AM CST 6:39 PM CST
Moon 7:03 PM CST (11/30) 8:50 AM CST (11/30)
Length of Visible Light 10h 47m
Length of Day
9h 50m
Waning Gibbous, 96% of the Moon is Illuminated
Nov 30
Waning Gibbous
Dec 6
Last Quarter
Dec 13
New
Dec 19
First Quarter
Dec 28
Full

Hourly Weather History & Observations

Time (CST) Temp. Windchill Dew Point Humidity Pressure Visibility Wind Dir Wind Speed Gust Speed Precip Events Conditions
12:53 AM 37.9 °F - 33.1 °F 83% 30.09 in 10.0 mi Calm Calm - N/A   Clear
1:53 AM 43.0 °F 41.3 °F 34.0 °F 71% 30.07 in 10.0 mi South 3.5 mph - N/A   Clear
2:53 AM 37.9 °F - 34.0 °F 86% 30.08 in 10.0 mi Calm Calm - N/A   Clear
3:53 AM 36.0 °F - 32.0 °F 86% 30.08 in 10.0 mi Calm Calm - N/A   Clear
4:53 AM 35.1 °F - 32.0 °F 89% 30.07 in 10.0 mi Calm Calm - N/A   Clear
5:53 AM 35.1 °F - 33.1 °F 92% 30.08 in 10.0 mi Calm Calm - N/A   Clear
6:53 AM 33.1 °F - 32.0 °F 96% 30.09 in 10.0 mi Calm Calm - N/A   Clear
7:53 AM 34.0 °F - 33.1 °F 96% 30.10 in 10.0 mi Calm Calm - N/A   Clear
8:53 AM 46.9 °F - 39.9 °F 77% 30.12 in 10.0 mi Calm Calm - N/A   Clear
9:53 AM 54.0 °F - 44.1 °F 69% 30.10 in 10.0 mi SSE 6.9 mph - N/A   Clear
11:53 AM 64.0 °F - 50.0 °F 60% 30.07 in 10.0 mi SSE 8.1 mph - N/A   Clear
12:53 PM 64.0 °F - 51.1 °F 63% 30.04 in 10.0 mi SSE 10.4 mph - N/A   Clear
1:53 PM 63.0 °F - 52.0 °F 67% 30.03 in 9.0 mi SSE 13.8 mph - N/A   Clear
2:34 PM 59.0 °F - 51.8 °F 77% 30.04 in 8.0 mi South 9.2 mph - N/A   Mostly Cloudy
2:53 PM 59.0 °F - 52.0 °F 78% 30.04 in 7.0 mi SSE 9.2 mph - N/A   Overcast
3:53 PM 59.0 °F - 53.1 °F 81% 30.04 in 7.0 mi South 5.8 mph - N/A   Overcast
4:53 PM 57.9 °F - 53.1 °F 84% 30.02 in 7.0 mi SE 8.1 mph - N/A   Overcast
5:53 PM 55.0 °F - 52.0 °F 89% 30.02 in 7.0 mi South 3.5 mph - N/A   Mostly Cloudy
6:01 PM 55.4 °F - 51.8 °F 88% 30.02 in 7.0 mi Calm Calm - N/A   Scattered Clouds
6:53 PM 46.0 °F - 46.0 °F 100% 30.02 in 4.0 mi Calm Calm - N/A   Clear
7:05 PM 46.4 °F - 46.4 °F 100% 30.02 in 2.0 mi Calm Calm - N/A   Clear
7:09 PM 46.4 °F - 46.4 °F 100% 30.02 in 0.8 mi Calm Calm - N/A   Clear
7:18 PM 44.6 °F - 44.6 °F 100% 30.03 in 1.0 mi Calm Calm - N/A   Mist
7:25 PM 46.4 °F - 46.4 °F 100% 30.03 in 1.8 mi Calm Calm - N/A   Clear
7:47 PM 42.8 °F - 42.8 °F 100% 30.04 in 0.8 mi Calm Calm - N/A   Mist
7:53 PM 44.1 °F - 43.0 °F 96% 30.04 in 0.2 mi Calm Calm - N/A Fog Fog
8:01 PM 42.8 °F - 42.8 °F 100% 30.03 in 0.2 mi Calm Calm - N/A Fog Fog
8:50 PM 42.8 °F - 42.8 °F 100% 30.03 in 0.5 mi Calm Calm - N/A Fog Fog
8:51 PM 44.1 °F - 44.1 °F 100% 30.03 in 0.5 mi Calm Calm - N/A Fog Fog
8:56 PM 44.6 °F - 44.6 °F 100% 30.03 in 1.0 mi Calm Calm - N/A   Overcast
9:08 PM 46.4 °F - 46.4 °F 100% 30.03 in 2.5 mi Calm Calm - N/A   Overcast
9:24 PM 46.4 °F - 46.4 °F 100% 30.03 in 4.0 mi Calm Calm - N/A   Overcast
9:53 PM 48.9 °F - 48.0 °F 97% 30.02 in 4.0 mi Calm Calm - N/A   Overcast
10:53 PM 52.0 °F - 51.1 °F 97% 30.01 in 5.0 mi Calm Calm - N/A   Overcast
11:53 PM 57.9 °F - 55.0 °F 90% 29.99 in 7.0 mi SSE 9.2 mph - N/A   Overcast